Current weather by "City, St" or "zip code"  
 
Advertise Here

Current Conditions: Jasper Walker County Airport amp; Bevill Field, AL

Fair


54.0 F

Last Updated on Jan 20 2021, 12:55 pm CST
Humidity: 41%
Wind Speed: NW 4.6 mph
Barometer 30.30 in
Dewpoint: 30.2 F
Visibility: 10.00 mi
Precip: --
Heat Index: NA
Wind Chill: 53 F
Current conditions at:

Jasper Walker County Airport amp; Bevill Field, AL (KJFX)

Lat: 33.902 Lon: 87.31417

Local Radar Image active severe weather and emergency alerts image image weather storm and storm spotter reports image weather observation monitoring service image
Local
Radar
Active
Alerts
Storm Reports Obs
Monitoring

Sign-up For Email & Text Message Weather Alert Notification Services


Advertise Here

Observation History for Jasper Walker County Airport amp; Bevill Field, AL


Time Wind
(mph)
Vis
(mi)
Weather Precip (in) Temperature (F) Relative
Humidity
Wind
Chill
(F)
Heat
Index
(F)
Pressure
Air Dwpt altimeter
(in)
sea level
(mb)
Rmks
12:55 pm CST NW 4.6 10.00 Fair -- 54.0 30.2 41% 53 NA 30.30 M
11:55 am CST NW 4.6 10.00 Fair -- 52.0 30.2 44% 51 NA 30.33 M
10:55 am CST N 0.0 10.00 Fair -- 50.0 30.2 47% NA NA 30.36 M
9:55 am CST 10.00 Fair -- 48.0 33.8 58% NA NA 30.39 M
8:55 am CST N 0.0 10.00 Fair -- 41.0 39.2 93% NA NA 30.39 M
7:55 am CST N 0.0 4.00 Fog/Mist -- 36.0 35.6 100% NA NA 30.38 M
6:55 am CST N 0.0 5.00 Fog/Mist -- 36.0 35.6 100% NA NA 30.39 M
5:55 am CST N 0.0 1.75 Fog/Mist -- 37.0 37.4 100% NA NA 30.37 M
4:55 am CST N 0.0 0.25 Fog -- 37.0 37.4 100% NA NA 30.35 M
3:55 am CST N 0.0 3.00 Fog/Mist -- 41.0 41.0 100% NA NA 30.36 M
2:55 am CST N 0.0 4.00 Fog/Mist -- 43.0 42.8 100% NA NA 30.35 M
1:55 am CST N 0.0 0.75 Fog/Mist -- 43.0 42.8 100% NA NA 30.35 M
12:55 am CST N 0.0 8.00 Mostly Cloudy -- 48.0 48.2 100% NA NA 30.33 M
11:55 pm CST N 0.0 10.00 Overcast -- 48.0 46.4 94% NA NA 30.34 M
10:55 pm CST N 0.0 10.00 Overcast -- 48.0 46.4 94% NA NA 30.34 M
9:55 pm CST N 0.0 10.00 Overcast -- 48.0 46.4 94% NA NA 30.36 M
8:55 pm CST N 0.0 10.00 Overcast -- 48.0 46.4 94% NA NA 30.35 M
7:55 pm CST N 0.0 10.00 Overcast -- 50.0 46.4 88% NA NA 30.34 M
6:55 pm CST N 0.0 10.00 Overcast -- 48.0 46.4 94% NA NA 30.34 M
5:55 pm CST N 0.0 10.00 Overcast -- 48.0 46.4 94% NA NA 30.33 M
4:55 pm CST N 0.0 10.00 Overcast -- 50.0 48.2 94% NA NA 30.32 M
3:55 pm CST N 0.0 9.00 Overcast -- 50.0 48.2 94% NA NA 30.31 M
2:55 pm CST N 0.0 9.00 Overcast -- 50.0 48.2 94% NA NA 30.31 M
1:55 pm CST N 0.0 6.00 Overcast with Haze -- 50.0 44.6 82% NA NA 30.31 M

Regional Weather Observation


Jasper Walker County Airport amp; Bevill Field, AL (KJFX)

Fair
54.0 F

Unknown Station (K9A4)

Fair
84.0 F

Muscle Shoals, North West Alabama Regional Airport, AL (KMSL)

Fair
49.0 F

Folsom Field Airport, AL (K3A1)

Partly Cloudy
82.0 F

Cullman Regional Folsom Field, AL (KCMD)

Fair
48.0 F

Tuscaloosa Regional Airport, AL (KTCL)

Fair
55.0 F